Main page
METAR-TAF:

METAR-TAF

Airports :

Paganella, Italy

latitude: 46-09N, longitude: 011-02E, elevation: 2125 m

Current weather observation

The report was made 40 minutes ago, at 06:55 UTC
Calm wind
Temperature 2°C
Humidity 75%
Pressure 1030 hPa
Visibility: 0600 m
fog

METAR: LIVP 190655Z 00000KT 0600 FG VV/// 02/M02 Q1030 RMK MON INVIS VAL INVIS VIS MIN 0600

Time: 09:35 (07:35 UTC)


TAF: missing

Weather observations and forecasts of more than 4000 airports (METAR and TAF reports).

The available stations are represented by yellow and red dots on the map.

Hover mouse over dot to see the name of the station.

Then click to see weather observations and forecasts.

To change the map : click on the green buttons with a black cross to zoom in, on the green button with a dash to zoom out, or on the green arrows for adjacent maps.


METAR-TAF: